Location: �clusier
(49.9361°N, 2.7869°E)
Time: 02:54:10
(UTC+00:00)

Cosmos 1943 Rocket - Pass Details

Date: 02 November 2021
Orbit: 811 x 844 km, 71.0° (Epoch: 07 December)

Event Time Altitude Azimuth Distance (km) Brightness Sun altitude
Rises 19:15:34 0° 331° (NNW) 3,414 5.9 -27.9°
Reaches altitude 10° 19:18:03 10° 334° (NNW) 2,474 5.0 -28.3°
Enters shadow 19:22:27 52° 359° (N) 1,044 2.6 -29.0°
